Temp_Advection
nan nan nan nan nan nan nan nan nan nan nan nan nan nan nan nan nan nan nan nan nan nan nan nan nan nan nan nan nan nan nan nan nan nan nan nan nan nan nan nan nan nan nan nan nan nan nan nan nan nan nan nan nan nan
nan 1 0 0 0 0 0 -0 0 0 0 0 0 0 0 0 0 0 0 0 0 0 -0 -0 -0 -0 -0 -1 0 0 -0 -0 0 0 0 -0 -0 -0 0 -1 -0 0 -0 0 -0 -1 -0 0 0 0 -0 -0 0 nan
nan 1 0 0 -0 -0 -0 -0 0 0 0 0 0 0 0 0 0 -0 -0 0 0 -0 -1 -1 -0 0 0 -0 -0 -0 -0 0 0 0 -0 -0 -0 -0 -0 -1 -1 -0 0 0 -0 -1 -0 0 0 0 -0 0 -0 nan
nan 1 0 -0 0 -0 -0 0 0 0 0 0 0 -0 -0 -0 -0 -0 0 0 0 -0 -0 -0 0 -0 -0 0 0 -0 -1 1 0 -0 -0 -0 -0 -0 -0 -0 -0 -1 0 0 -1 -1 -0 -0 -0 0 0 0 -0 nan
nan 1 0 0 0 0 0 0 0 0 0 0 0 -0 -0 -0 -0 0 0 0 -0 -0 -0 0 -0 -0 0 1 0 -0 0 1 -0 -0 -0 -0 -0 -0 -1 -0 -1 -1 -0 -0 -1 -1 0 0 -0 -0 -0 -0 -0 nan
nan 1 0 0 0 0 0 0 0 1 0 0 0 0 0 0 0 0 -0 0 0 0 -0 -0 0 0 0 0 0 0 0 0 0 -0 -0 -1 -0 0 -0 -1 -1 0 0 -1 -0 1 -0 -0 0 -0 0 0 -0 nan
nan 0 0 0 0 0 0 0 0 0 0 0 0 0 0 0 0 0 0 0 0 -0 -0 -0 -0 0 0 -0 -0 0 0 0 0 -0 -0 -1 0 0 -0 -2 -2 0 0 0 -0 -0 -0 0 1 1 -0 -1 -0 nan
nan -0 -0 0 0 0 0 0 0 0 0 0 0 0 0 0 0 -0 0 0 0 0 -0 -0 -0 0 0 -0 -0 -0 -0 -0 -1 -1 -0 -0 0 -0 -1 -2 -0 -0 0 0 0 1 1 -0 -1 0 1 -0 -1 nan
nan 0 0 0 0 0 0 0 0 0 -0 -0 0 -0 0 -0 -0 -0 0 0 0 -0 -0 -0 -0 0 -0 -0 -0 -0 -0 -0 -1 -0 -0 -0 -0 -1 -1 -1 0 0 0 0 -0 -0 -0 0 0 -1 -1 -0 0 nan
nan 1 1 0 0 0 0 0 0 -0 0 0 0 -0 0 -0 -0 -0 -0 -0 -0 -0 -0 -1 -0 0 -0 -0 -0 -0 -0 -0 -0 -0 -0 -0 -1 -1 -0 0 0 0 0 0 -1 -1 -0 -1 -0 -0 -0 -0 -0 nan
nan 0 0 0 0 0 0 -0 0 0 0 0 -0 0 -0 0 -0 -0 -0 -1 -1 -0 -1 -0 -1 0 0 -0 -0 -0 -0 -0 -0 0 0 -0 -0 -0 0 0 0 0 0 0 0 -0 -0 -0 -0 -0 -0 -0 -0 nan
nan 0 -0 0 -0 -0 0 0 -0 -0 0 -0 0 -0 -0 -0 -0 -0 -0 -0 -1 -0 -0 -0 0 0 0 0 -0 -0 -0 -0 -0 0 -0 -0 -0 0 0 0 0 0 0 0 0 0 0 0 -0 -0 -0 -0 -0 nan
nan -0 -0 0 0 -0 -0 -0 -0 0 -0 -0 -0 0 -0 -0 -1 -0 -1 -0 -0 0 -0 0 -0 -0 0 -0 -0 -0 -0 -0 -0 0 -0 -0 0 0 -0 0 0 0 0 0 0 0 0 0 0 0 -0 -0 -0 nan
nan 0 0 0 0 0 0 0 0 0 0 -0 -0 -0 -0 -0 -1 -0 -0 0 -0 0 -0 -0 -0 -0 -0 -0 -0 -0 -0 0 -0 -0 -0 -0 -0 0 0 0 0 0 0 -0 0 -0 0 0 0 0 0 -0 -0 nan
nan 0 0 0 0 0 0 0 0 -0 -0 0 -0 -0 -0 -0 -0 0 0 0 0 -0 -0 -0 -0 -0 -0 -0 -0 0 -0 -0 -0 -0 -0 -1 -1 -0 -0 0 0 0 0 -0 -0 -0 -0 0 0 0 0 -0 -0 nan
nan 0 0 -0 -0 0 0 0 -0 -0 -0 -0 -0 -0 -0 -0 0 0 -0 -0 0 0 -0 -0 0 0 -0 -0 -0 -0 -0 -0 0 -0 -0 -0 -0 -0 -0 0 0 0 0 -0 -0 0 -0 -0 0 0 0 0 0 nan
nan -0 -0 -0 -0 -0 -0 -0 -0 -0 -0 -0 0 0 -0 -0 -0 0 -0 0 0 -0 -0 0 0 -0 -0 -0 -0 0 0 -0 -0 -0 -0 -0 -0 -0 -0 0 0 0 0 -0 -0 0 -0 -0 -0 -0 0 0 0 nan
nan -0 -0 0 0 -0 -0 0 0 -0 -0 -0 0 0 0 -0 -0 -0 0 0 -0 -0 0 -0 -0 -0 -0 -1 0 -0 -0 -0 -0 -0 -0 -0 -0 -0 0 0 1 0 0 0 -0 0 -0 -0 -0 -0 -0 -0 0 nan
nan 0 0 -0 0 0 -0 0 0 -0 -0 0 0 0 -0 -0 -0 -0 -0 -0 -0 -0 -0 -0 -0 -0 -0 -0 0 0 0 0 -0 -0 -0 -0 -0 -0 -0 -0 0 1 0 0 0 0 0 0 -0 -0 -0 -0 -0 nan
nan 0 0 0 0 0 0 -0 -0 -0 0 -0 -0 -0 -0 -0 -0 -0 -0 -0 -0 -0 -0 -0 -0 -0 0 0 -0 -0 -0 -0 -0 -1 -1 -0 -0 -0 -0 -0 -0 1 0 -0 0 0 0 0 0 0 -0 -0 -0 nan
nan 0 0 0 0 0 0 0 -0 -0 -0 -0 -0 -0 -0 0 -0 -0 -0 -0 -0 -1 -0 0 0 0 0 0 -0 -0 -0 -0 -0 -0 -1 -1 -1 -1 -0 -0 -0 0 1 0 -0 0 0 0 0 0 0 -0 -0 nan
nan 0 0 0 0 0 0 0 -0 -0 -0 -0 -0 -0 -0 0 0 0 -0 -0 -0 0 0 0 1 1 0 -0 -0 -0 -0 -0 -0 -0 -1 -1 -1 -1 -1 -0 -0 0 0 0 -0 0 0 0 -0 0 0 0 0 nan
nan -0 0 0 0 0 0 0 -0 -0 -0 -0 -0 -0 0 0 0 -0 -0 -0 0 0 0 0 -0 -0 -0 -0 -0 -1 -1 -1 -1 -1 -1 -0 -0 -0 -1 -1 -0 -0 -0 0 -0 0 0 -0 -0 0 0 0 0 nan
nan -0 -0 0 -0 0 0 -0 -0 -0 0 0 0 -0 -0 0 0 -0 -0 0 0 0 -0 -0 -0 -1 -0 -0 -0 -0 -0 -0 -1 -1 -1 -1 -1 -1 -1 -1 -0 -0 -0 0 0 0 0 -0 0 0 0 0 -0 nan
nan 0 0 -0 0 -0 -0 0 -0 0 0 -0 -0 -0 -0 0 0 -0 0 0 0 0 -0 -0 -0 -0 -1 -1 -1 -0 -0 -0 -0 -1 -1 -1 -1 -1 -1 -1 -1 -1 -0 -0 -0 -0 -0 0 0 0 0 0 -0 nan
nan 0 0 0 0 -0 -0 -0 -0 -0 -0 0 -0 -0 0 0 0 0 0 0 0 -0 -0 -0 -0 -1 -1 -0 -0 -1 -0 0 -0 -2 -2 -0 -1 -1 -1 -2 -2 -1 -0 -0 -0 0 0 1 0 0 0 0 0 nan
nan -0 0 0 -0 -0 -0 -0 -0 -0 -0 -0 -0 0 0 0 0 -0 0 0 -0 0 -0 -0 -0 -0 -1 -1 -0 -0 -0 -0 -0 -1 -1 -0 -1 -2 -2 -2 -2 -1 -1 -0 0 0 1 1 0 0 0 0 0 nan
nan 0 0 0 0 0 0 0 -0 -0 -0 0 0 0 0 0 0 0 0 0 -0 -0 0 -0 -0 -0 -0 -0 -0 0 1 0 -0 -1 -1 -2 -3 -2 -2 -2 -1 -1 -1 0 1 1 1 1 0 0 0 0 0 nan
nan 0 -0 0 0 -0 -0 -0 -0 0 0 0 0 0 0 -0 0 0 -0 -0 0 -0 -0 -0 -0 -0 -0 -1 -0 0 1 1 0 -1 -2 -3 -2 -2 -1 -1 -0 -1 -0 1 1 1 1 0 0 0 0 0 0 nan
nan 0 0 -0 -0 -0 0 0 0 0 0 0 0 0 0 0 0 0 -0 -0 -0 0 -0 0 0 -0 -0 -1 -2 -1 -0 1 1 1 -1 -4 -2 -1 -0 -0 -0 0 1 0 0 0 0 0 0 0 0 0 0 nan
nan -0 -0 -0 -0 0 0 0 0 0 0 0 0 0 0 -0 -0 -0 -0 -0 0 0 -0 -0 0 1 0 0 -0 -1 -1 -0 1 1 -0 -1 -1 -0 0 0 0 0 0 0 0 -0 -0 0 -0 -0 -0 -0 -0 nan
nan -0 0 -0 0 0 0 -0 -0 0 -0 -0 -0 -0 0 -0 -0 0 -0 -0 -0 -0 -0 -0 -0 0 0 0 -0 0 -0 -0 0 0 0 0 0 0 1 0 1 0 0 0 0 -0 -0 -0 -0 -0 -0 -0 -0 nan
nan nan nan nan nan nan nan nan nan nan nan nan nan nan nan nan nan nan nan nan nan nan nan nan nan nan nan nan nan nan nan nan nan nan nan nan nan nan nan nan nan nan nan nan nan nan nan nan nan nan nan nan nan nan
Wind_Speed
26 26 24 24 25 24 22 20 18 19 18 16 16 19 18 18 19 19 18 18 16 11 22 23 20 18 16 13 9 6 8 7 4 5 3 4 5 6 7 11 9 11 6 6 7 8 13 4 6 14 15 24 27 37
27 26 24 26 25 24 24 21 19 18 17 16 16 15 14 15 17 17 17 15 18 20 15 11 12 21 28 27 23 13 9 3 2 4 4 3 6 5 12 14 15 15 16 12 12 10 17 27 29 35 36 36 36 36
26 27 25 23 23 23 22 22 20 18 17 15 13 13 12 12 12 16 12 10 9 14 27 24 25 22 26 30 28 24 25 25 25 21 7 5 8 8 11 10 14 14 18 13 17 17 20 26 35 36 37 35 33 33
25 24 25 24 26 24 23 22 21 18 15 14 13 11 10 10 10 10 13 11 14 6 6 7 6 8 3 17 22 27 30 21 11 12 9 7 8 10 12 14 14 16 17 20 22 25 31 29 26 28 32 35 35 37
25 25 26 25 26 25 24 24 22 20 19 17 15 14 13 12 11 11 14 14 15 11 6 14 24 16 4 19 21 23 26 24 20 9 7 10 15 11 14 14 18 22 22 14 17 28 27 32 38 36 34 35 34 33
26 26 26 25 25 26 24 23 22 21 19 18 17 16 16 14 13 11 6 16 23 24 5 4 9 12 9 6 13 18 19 19 17 7 9 16 26 12 6 12 25 29 26 27 25 33 34 36 36 35 32 28 33 33
29 27 26 25 25 26 24 21 20 22 21 20 19 22 19 18 17 11 4 3 4 20 4 5 5 4 3 2 3 8 15 11 12 6 9 23 21 8 5 16 32 29 25 28 29 29 29 28 26 30 31 32 31 33
29 27 26 25 24 23 21 18 15 14 13 12 11 10 11 10 13 19 21 9 4 15 4 3 4 5 3 3 4 7 8 11 10 9 8 8 10 9 7 21 24 22 19 19 21 20 20 24 26 29 29 29 29 30
30 28 26 24 23 22 20 19 18 14 15 13 12 12 10 10 8 7 10 20 19 9 4 5 3 2 2 3 3 6 7 5 9 6 5 6 5 7 14 18 18 17 16 22 19 19 21 21 25 26 26 27 28 32
28 28 26 25 24 23 21 18 18 16 17 16 14 7 5 6 9 11 9 12 10 7 7 6 12 6 3 4 4 2 6 4 3 5 4 4 9 26 25 20 18 13 10 12 16 19 21 23 24 25 26 27 27 30
28 27 25 25 23 22 22 20 19 20 19 13 8 5 7 13 10 6 6 8 10 5 9 9 20 12 8 6 5 5 3 3 3 3 3 3 4 6 3 4 5 6 7 9 13 15 17 22 26 27 27 27 28 26
26 24 25 25 23 19 22 20 23 22 13 13 9 9 9 5 5 5 5 6 7 5 9 6 7 12 7 9 7 5 4 4 5 6 3 3 3 4 4 5 5 6 7 11 11 14 17 20 22 23 23 24 23 14
26 24 23 22 21 21 20 24 23 20 16 15 4 6 5 5 8 7 8 5 5 6 9 9 4 7 8 10 6 4 6 6 4 4 3 5 2 3 5 4 6 6 7 10 11 13 16 20 21 20 22 20 12 9
24 24 21 22 22 20 22 23 21 24 16 6 8 6 6 6 6 6 7 1 4 5 7 8 4 7 7 6 4 5 4 2 4 4 5 2 3 5 4 5 6 9 7 10 11 15 18 22 23 21 19 15 6 4
25 23 22 21 20 23 21 22 25 26 9 6 6 5 7 8 6 3 4 4 1 3 4 3 4 5 4 5 4 3 3 5 5 3 2 11 12 10 9 8 8 9 10 8 12 15 16 18 20 21 18 12 5 2
23 21 21 23 24 21 23 24 25 24 4 5 6 4 6 4 6 6 7 6 3 2 3 4 3 4 7 4 6 8 4 5 2 2 5 10 15 16 13 12 10 10 10 10 11 12 13 14 15 16 16 13 6 2
24 16 22 21 23 23 26 26 14 8 8 5 5 10 8 3 4 4 3 3 2 3 3 3 4 7 2 4 5 5 4 5 5 6 8 10 14 17 16 12 10 11 11 12 11 10 11 11 11 12 13 12 10 7
15 16 19 24 25 27 26 20 9 8 7 7 5 6 8 8 7 5 5 7 6 7 8 5 6 8 6 11 7 2 4 4 5 7 12 14 16 16 12 11 11 11 11 11 10 10 9 9 8 8 8 8 7 7
17 19 24 28 29 16 6 9 5 3 6 3 8 10 8 8 11 12 11 11 11 11 6 6 7 7 9 11 9 9 12 13 15 17 17 17 17 15 15 14 18 18 14 12 10 8 7 7 7 7 6 5 5 6
20 20 20 27 26 6 4 4 6 4 4 5 7 10 12 11 8 8 9 10 11 13 10 6 10 15 15 13 14 16 21 22 22 24 23 21 18 18 17 15 15 15 15 14 12 9 7 7 6 6 5 5 4 3
19 16 14 14 10 4 3 5 4 3 3 5 5 9 9 8 10 11 11 9 12 15 10 19 20 18 18 17 19 21 22 20 21 21 23 24 23 23 23 19 16 15 16 17 15 11 10 7 6 7 6 5 5 4
15 20 14 11 3 4 2 5 3 4 4 4 5 6 7 9 14 17 16 16 15 20 21 21 19 13 13 14 16 18 20 22 24 24 23 23 23 21 20 18 16 17 17 18 18 14 11 9 6 7 5 5 5 5
20 14 6 5 3 5 3 6 7 6 4 3 4 3 3 3 4 4 4 6 4 3 2 2 5 9 12 16 19 21 21 21 23 23 22 22 21 21 21 20 19 20 21 18 18 14 12 10 8 5 7 6 6 5
13 8 4 7 5 4 4 5 5 4 5 6 4 4 4 4 4 5 5 3 4 2 2 6 8 12 13 14 17 19 19 18 21 23 22 23 24 24 20 19 19 19 21 19 16 16 14 13 9 6 7 7 8 7
5 5 5 4 6 4 5 4 4 5 4 6 7 4 3 5 3 3 6 4 5 2 5 9 10 11 15 19 20 20 19 20 22 25 26 21 24 24 23 21 22 21 20 20 20 19 16 14 11 8 10 10 10 9
4 5 7 9 6 5 6 4 5 6 3 4 4 3 3 3 4 4 2 3 1 3 8 11 13 15 16 16 23 27 27 23 22 28 32 22 23 25 25 22 21 21 21 22 23 20 16 15 12 12 13 13 10 9
3 4 5 5 5 5 4 3 4 3 4 5 3 3 4 4 5 2 3 2 3 6 9 11 12 15 18 21 21 23 25 25 24 30 32 27 26 26 24 25 24 24 22 26 25 19 17 18 14 17 16 14 11 10
3 6 5 8 7 6 3 3 3 4 3 2 2 4 3 3 1 3 3 3 6 9 11 12 12 13 16 19 22 25 24 24 25 25 27 29 30 29 30 31 28 24 25 25 25 18 17 18 20 19 17 14 13 12
4 4 6 3 2 4 6 5 4 5 3 3 3 2 1 1 2 2 1 3 6 8 10 12 14 15 15 19 22 24 26 25 21 24 25 22 17 19 23 26 22 23 22 26 20 17 17 17 22 20 16 15 14 12
4 4 4 3 3 6 5 6 3 3 2 3 3 2 3 3 4 3 2 5 7 9 12 13 13 14 17 22 27 28 27 30 24 21 24 21 11 16 17 21 20 23 28 27 24 21 18 19 21 20 18 16 14 13
1 3 3 4 3 3 3 5 7 5 4 3 5 4 5 5 7 5 5 8 10 10 10 13 16 14 17 22 26 30 34 33 32 22 12 8 10 17 17 23 29 32 30 26 25 25 24 23 22 21 18 17 16 14
1 3 2 2 3 3 4 3 4 5 6 5 4 4 4 4 5 2 4 8 9 8 11 15 16 16 16 20 20 21 22 26 28 26 11 6 17 21 27 29 28 26 26 25 24 24 23 21 20 19 18 16 15 14
2 2 3 3 3 3 2 2 5 4 4 4 3 4 4 2 3 2 5 8 10 12 15 15 14 14 15 17 20 19 19 20 21 21 19 9 20 24 26 25 23 24 24 23 23 22 20 19 18 17 16 15 14 14
Wind_Direction
231 227 223 220 214 219 222 223 226 222 221 226 223 222 225 222 226 230 239 243 239 256 264 260 251 249 253 255 255 268 305 212 229 231 249 235 250 248 273 270 280 285 267 243 238 255 268 308 266 238 270 301 306 304
228 225 223 216 211 215 214 218 223 226 224 222 221 222 222 219 216 221 235 243 247 254 254 268 236 241 242 244 252 241 236 239 218 250 230 287 262 261 280 281 284 273 267 273 280 272 300 300 296 287 286 287 291 293
227 222 217 213 204 209 205 211 218 226 222 221 222 222 221 221 225 212 223 228 238 272 285 266 262 268 252 245 241 246 247 251 256 253 272 265 257 269 271 274 290 268 264 261 271 270 272 284 289 290 290 290 292 289
223 213 209 208 204 202 204 207 213 221 218 215 219 223 222 218 222 226 225 231 224 257 277 293 270 257 256 234 235 233 242 250 252 242 238 249 257 263 269 279 278 271 287 274 274 278 281 278 285 297 298 294 294 293
216 204 203 205 202 200 200 205 210 211 211 214 216 217 219 223 227 235 242 232 221 218 288 289 293 290 258 242 240 235 232 232 233 225 225 248 258 263 258 266 263 267 268 268 271 282 291 289 295 297 297 294 293 295
205 199 198 195 194 195 200 201 202 204 204 205 207 214 214 215 219 219 251 249 238 225 255 291 304 282 285 253 233 224 220 221 217 226 244 260 255 262 273 268 274 278 273 268 271 283 289 289 293 295 298 301 298 296
199 194 187 187 182 189 196 200 203 213 220 222 222 220 221 215 213 199 218 185 177 212 238 277 266 272 281 195 124 183 202 207 216 231 239 255 259 234 256 270 276 290 292 284 282 287 286 290 300 300 300 300 300 297
191 191 189 190 193 197 198 193 183 182 180 178 181 188 192 191 212 231 224 212 216 194 220 261 268 279 194 194 175 170 174 197 212 228 238 245 253 210 245 256 276 293 300 290 295 300 294 294 297 299 301 303 300 298
193 189 188 185 182 183 178 180 184 174 170 172 172 170 178 198 209 232 220 223 226 228 250 223 240 292 196 214 193 185 186 208 222 215 228 233 227 229 245 268 290 308 301 300 307 306 304 304 303 304 306 306 304 303
183 182 181 181 178 181 180 179 169 171 163 161 169 170 189 190 176 151 130 175 198 229 237 249 228 239 244 212 202 216 211 245 248 219 172 239 256 257 270 285 289 303 302 309 314 317 316 311 311 309 305 305 304 311
182 183 180 177 176 180 182 173 173 163 161 166 173 180 162 157 164 197 191 183 193 224 212 235 227 231 234 237 241 243 240 230 249 159 223 239 262 266 273 284 290 300 307 312 309 307 311 311 310 311 310 311 317 319
183 180 176 176 177 175 168 174 166 169 169 176 164 148 162 190 212 220 203 190 203 228 180 204 211 204 212 204 217 209 242 220 252 140 231 253 239 285 301 296 289 299 309 319 322 316 320 321 319 314 312 312 323 327
182 178 174 175 177 173 174 171 172 175 164 152 156 151 173 172 222 222 203 199 195 195 169 177 180 166 188 199 213 228 221 227 145 216 226 243 208 330 336 294 295 302 299 319 325 321 326 333 338 335 328 328 324 332
174 175 175 173 175 177 175 174 173 175 164 168 169 189 211 192 226 212 226 266 72 126 159 187 195 195 189 186 243 243 198 247 230 227 230 254 2 333 324 321 312 312 302 317 324 326 341 345 349 350 346 343 325 339
174 177 178 177 181 175 176 176 174 180 179 184 196 217 215 228 240 233 228 233 184 249 213 196 243 224 216 247 225 247 223 229 227 232 58 10 335 338 334 320 309 314 309 310 315 322 336 345 353 356 359 360 3 99
167 168 178 176 176 173 171 169 175 187 216 210 220 230 226 236 221 230 238 241 190 152 189 227 237 230 229 219 214 219 223 230 154 54 21 357 356 348 326 311 300 304 317 310 308 312 326 344 353 358 8 16 28 104
171 173 173 174 170 171 173 172 168 178 203 213 216 222 237 262 251 198 208 252 174 235 231 227 235 230 254 229 225 223 244 90 59 12 354 333 334 335 337 312 304 310 308 320 309 301 316 332 343 355 8 21 38 61
173 165 180 177 169 166 172 182 179 197 210 203 208 225 215 232 234 231 205 250 258 234 229 238 290 248 249 257 261 64 68 9 350 332 322 325 328 328 329 326 304 309 295 307 306 296 307 324 334 333 351 1 21 39
163 163 159 165 170 163 130 181 192 225 216 205 227 241 244 256 250 252 252 253 244 239 239 232 237 244 246 260 287 315 322 324 319 317 313 313 316 315 319 316 318 308 297 288 291 285 285 300 315 317 315 331 357 16
158 150 162 169 166 132 129 144 175 220 204 208 228 241 242 249 257 249 248 246 236 223 214 230 245 259 277 290 302 303 303 305 305 303 302 301 302 305 303 308 301 295 289 279 279 280 273 283 298 306 301 283 291 325
161 162 161 165 165 136 123 152 175 204 212 223 224 235 245 246 252 250 247 246 243 241 251 253 264 271 279 289 293 293 292 295 293 292 292 292 293 293 290 290 289 277 271 274 260 256 257 263 278 307 287 280 264 260
150 168 159 164 133 171 190 192 205 181 214 229 220 228 254 261 264 262 264 254 254 253 252 259 266 274 276 281 287 288 289 290 289 287 286 285 284 284 282 277 280 272 264 261 254 244 245 245 268 303 279 248 248 241
160 155 134 125 138 179 171 181 202 207 223 213 218 234 230 230 233 201 234 225 211 195 224 261 283 289 288 291 291 290 291 291 288 284 282 278 277 277 276 273 268 268 260 250 246 230 230 231 249 275 266 232 213 218
147 147 148 170 178 164 172 196 207 225 212 220 225 238 242 226 209 228 242 228 182 184 330 329 321 311 304 296 293 295 300 299 294 287 278 275 277 274 270 272 267 260 251 253 228 218 217 228 227 237 233 217 201 194
151 165 172 163 183 157 183 199 214 212 216 217 237 243 230 213 229 237 253 172 198 273 332 331 324 316 308 305 304 303 305 302 295 289 276 268 270 274 272 269 259 253 247 229 212 216 220 221 215 215 209 196 183 181
185 179 186 181 175 185 192 190 199 208 208 212 231 237 214 215 222 235 164 174 225 319 329 325 321 315 308 304 304 310 310 305 293 280 280 272 263 262 264 264 262 254 239 226 218 212 221 219 205 204 197 187 184 188
200 184 185 190 190 190 203 210 184 193 194 210 215 202 218 228 226 142 168 197 316 312 319 317 313 309 306 308 308 309 309 303 287 279 286 276 261 251 249 249 244 247 250 221 209 212 224 215 213 194 190 184 184 183
213 182 187 183 202 208 194 177 194 211 231 250 241 214 238 232 156 152 163 279 319 327 325 324 320 313 311 312 320 330 325 314 304 299 294 283 270 256 248 237 228 237 244 221 202 206 207 203 192 185 185 187 181 178
194 179 168 165 186 193 217 217 235 232 198 211 263 260 239 105 148 140 250 325 336 335 334 334 335 331 328 333 342 346 349 341 323 318 315 307 272 257 223 212 218 227 224 191 188 196 190 192 185 184 183 180 174 171
163 179 194 167 191 211 227 200 226 207 213 219 205 174 175 178 182 157 30 347 331 331 338 340 337 337 338 344 345 348 356 355 348 328 312 299 288 252 221 206 205 201 177 174 174 170 169 169 171 175 176 177 177 172
186 195 219 206 233 231 216 241 249 238 218 205 214 211 186 180 201 250 293 330 338 329 328 333 338 338 341 348 350 349 349 355 354 347 321 301 248 239 212 189 173 170 172 175 171 168 167 167 167 167 166 165 165 166
197 212 219 230 229 230 226 229 222 213 198 192 182 164 169 181 202 227 291 333 338 334 334 339 336 337 343 350 350 351 351 354 359 7 2 140 144 165 164 158 159 164 165 165 164 164 165 163 164 165 165 166 165 167
231 209 229 263 244 226 209 243 219 182 192 190 173 178 181 190 194 230 322 343 345 345 347 345 341 341 340 347 352 355 1 7 12 23 38 110 144 149 150 150 153 153 156 158 159 158 158 157 158 160 166 171 172 176
Height
1423 1425 1428 1432 1436 1440 1445 1448 1451 1454 1457 1459 1461 1464 1467 1470 1472 1475 1476 1477 1478 1475 1470 1471 1472 1472 1473 1473 1470 1469 1471 1466 1468 1466 1462 1455 1453 1443 1440 1433 1432 1431 1433 1428 1427 1425 1417 1401 1400 1403 1396 1393 1394 1393
1414 1419 1421 1424 1429 1434 1438 1442 1446 1449 1451 1454 1456 1459 1461 1464 1467 1470 1472 1473 1474 1473 1464 1462 1462 1463 1463 1466 1467 1467 1465 1462 1462 1461 1458 1455 1446 1444 1438 1436 1432 1430 1428 1422 1421 1407 1398 1401 1401 1400 1399 1395 1393 1390
1405 1410 1415 1418 1423 1427 1432 1437 1441 1444 1447 1450 1452 1455 1457 1460 1462 1465 1468 1471 1470 1468 1458 1455 1452 1453 1453 1454 1460 1461 1459 1460 1460 1461 1461 1456 1451 1443 1437 1427 1423 1419 1419 1416 1417 1405 1403 1399 1397 1395 1392 1389 1385 1382
1396 1401 1407 1412 1416 1421 1426 1430 1435 1439 1442 1446 1448 1451 1454 1457 1459 1461 1463 1466 1468 1468 1461 1446 1444 1445 1445 1447 1449 1451 1452 1456 1455 1457 1455 1451 1447 1441 1432 1427 1422 1417 1416 1412 1406 1401 1396 1393 1389 1387 1384 1380 1377 1373
1389 1393 1400 1405 1411 1415 1419 1424 1429 1433 1437 1441 1444 1447 1450 1453 1456 1458 1459 1461 1463 1465 1455 1444 1441 1436 1434 1438 1439 1442 1445 1449 1451 1451 1449 1444 1441 1440 1432 1427 1408 1414 1406 1404 1392 1392 1391 1384 1382 1379 1376 1371 1368 1364
1383 1387 1393 1399 1404 1410 1414 1418 1423 1427 1431 1435 1439 1442 1446 1449 1452 1455 1456 1454 1456 1458 1459 1446 1437 1431 1432 1431 1432 1435 1439 1443 1445 1444 1442 1437 1437 1437 1425 1408 1395 1397 1395 1394 1387 1386 1383 1377 1374 1370 1366 1363 1360 1356
1378 1383 1388 1393 1399 1404 1409 1413 1418 1422 1425 1430 1434 1438 1441 1445 1447 1451 1453 1451 1450 1453 1456 1447 1436 1430 1429 1429 1429 1432 1436 1438 1440 1440 1435 1431 1429 1430 1417 1401 1379 1388 1388 1385 1383 1380 1373 1371 1368 1365 1362 1356 1351 1347
1373 1379 1384 1389 1394 1399 1404 1408 1413 1418 1422 1426 1430 1434 1438 1441 1444 1445 1447 1448 1450 1451 1452 1446 1433 1430 1428 1428 1428 1429 1432 1435 1435 1431 1426 1421 1419 1418 1407 1385 1385 1382 1380 1378 1376 1375 1372 1368 1364 1359 1355 1350 1345 1339
1368 1374 1379 1385 1391 1395 1400 1405 1411 1415 1420 1424 1429 1432 1436 1438 1440 1440 1441 1444 1448 1451 1444 1438 1429 1424 1426 1426 1426 1427 1427 1426 1422 1419 1415 1413 1404 1397 1383 1381 1378 1378 1377 1374 1372 1371 1367 1363 1359 1355 1350 1343 1338 1331
1365 1371 1376 1381 1387 1392 1397 1402 1408 1413 1418 1422 1428 1431 1431 1432 1435 1438 1441 1443 1445 1442 1437 1429 1426 1422 1425 1422 1419 1422 1421 1414 1407 1401 1403 1401 1388 1382 1378 1376 1375 1374 1374 1373 1369 1365 1363 1359 1354 1349 1343 1338 1333 1326
1362 1367 1373 1378 1384 1389 1394 1400 1405 1411 1416 1420 1424 1427 1429 1430 1434 1436 1434 1435 1435 1430 1424 1418 1418 1418 1421 1421 1418 1418 1411 1407 1400 1392 1396 1385 1376 1373 1374 1374 1373 1373 1372 1370 1368 1364 1361 1355 1348 1343 1337 1332 1327 1322
1360 1365 1370 1376 1381 1386 1392 1397 1403 1408 1412 1417 1421 1423 1427 1429 1429 1428 1421 1417 1417 1408 1407 1408 1410 1413 1415 1417 1415 1411 1406 1400 1393 1395 1394 1379 1371 1372 1372 1371 1371 1370 1369 1367 1364 1361 1357 1351 1345 1340 1334 1328 1323 1319
1357 1363 1368 1373 1379 1384 1389 1395 1400 1406 1410 1415 1419 1421 1422 1423 1421 1413 1405 1396 1396 1398 1401 1404 1406 1408 1411 1412 1411 1406 1400 1391 1389 1389 1377 1368 1368 1370 1370 1369 1368 1367 1366 1364 1361 1359 1354 1348 1342 1336 1330 1325 1321 1318
1354 1360 1366 1371 1377 1382 1387 1392 1398 1403 1409 1411 1413 1415 1412 1410 1403 1394 1391 1389 1395 1396 1398 1400 1401 1403 1404 1405 1400 1392 1388 1389 1382 1376 1370 1365 1368 1370 1369 1368 1367 1365 1362 1361 1358 1355 1351 1345 1340 1334 1329 1323 1320 1319
1352 1358 1364 1370 1374 1380 1385 1390 1396 1401 1405 1405 1406 1401 1398 1395 1395 1395 1396 1395 1395 1396 1397 1397 1398 1399 1396 1396 1390 1385 1385 1376 1369 1364 1366 1374 1373 1371 1369 1367 1365 1363 1359 1357 1356 1353 1349 1345 1340 1335 1329 1324 1321 1320
1351 1357 1361 1367 1372 1377 1383 1389 1394 1398 1400 1400 1397 1394 1393 1392 1391 1394 1394 1393 1394 1395 1395 1395 1393 1393 1388 1383 1380 1374 1369 1363 1364 1370 1372 1372 1371 1370 1367 1365 1363 1361 1358 1356 1353 1351 1348 1345 1341 1337 1332 1327 1323 1322
1348 1353 1358 1363 1369 1376 1382 1386 1389 1393 1394 1391 1389 1390 1391 1391 1391 1392 1392 1392 1393 1393 1391 1391 1390 1380 1378 1373 1367 1360 1360 1367 1373 1373 1373 1373 1371 1368 1365 1362 1360 1359 1357 1354 1351 1350 1347 1344 1341 1339 1335 1331 1328 1325
1346 1351 1357 1362 1368 1375 1379 1383 1386 1386 1385 1385 1387 1386 1388 1389 1389 1390 1390 1390 1392 1391 1391 1388 1384 1376 1371 1362 1359 1369 1371 1372 1372 1373 1372 1371 1368 1366 1363 1360 1359 1355 1354 1352 1350 1348 1346 1344 1342 1339 1337 1334 1331 1329
1347 1351 1356 1361 1365 1370 1375 1380 1381 1380 1380 1382 1383 1384 1384 1385 1385 1386 1386 1386 1387 1388 1389 1385 1380 1371 1368 1367 1366 1370 1371 1371 1370 1369 1368 1366 1365 1362 1359 1357 1354 1352 1350 1349 1347 1346 1345 1343 1341 1339 1337 1335 1334 1332
1349 1353 1357 1361 1366 1369 1374 1377 1378 1379 1378 1379 1379 1380 1380 1381 1381 1381 1381 1381 1381 1382 1381 1376 1370 1369 1368 1369 1371 1371 1370 1368 1366 1363 1361 1361 1360 1358 1356 1353 1351 1350 1347 1346 1344 1343 1343 1342 1340 1338 1336 1335 1334 1333
1351 1355 1359 1361 1365 1368 1371 1372 1374 1376 1376 1376 1375 1376 1376 1376 1376 1376 1376 1376 1376 1374 1370 1369 1368 1369 1369 1369 1369 1367 1366 1365 1362 1360 1357 1355 1354 1352 1350 1348 1346 1345 1343 1341 1340 1340 1340 1339 1338 1336 1335 1334 1333 1333
1350 1355 1358 1363 1366 1368 1370 1371 1373 1373 1375 1373 1374 1373 1371 1371 1371 1370 1370 1370 1368 1367 1367 1366 1366 1366 1366 1365 1364 1362 1360 1358 1355 1353 1351 1349 1346 1344 1343 1342 1340 1339 1338 1336 1335 1336 1336 1336 1334 1334 1333 1333 1333 1332
1351 1356 1359 1362 1365 1367 1370 1370 1371 1370 1369 1369 1369 1369 1368 1367 1366 1366 1365 1362 1362 1364 1364 1364 1364 1363 1361 1359 1357 1355 1353 1351 1348 1345 1344 1341 1339 1337 1335 1334 1333 1332 1331 1330 1330 1331 1332 1332 1331 1331 1331 1331 1331 1331
1353 1356 1359 1360 1362 1365 1367 1367 1367 1366 1365 1365 1364 1365 1363 1363 1363 1361 1357 1356 1361 1362 1361 1360 1359 1358 1356 1354 1352 1349 1347 1344 1340 1337 1336 1333 1330 1327 1327 1325 1325 1324 1324 1324 1325 1326 1327 1327 1328 1329 1329 1330 1330 1331
1354 1357 1358 1359 1360 1363 1364 1363 1363 1361 1362 1362 1361 1360 1358 1359 1356 1353 1352 1355 1359 1359 1358 1357 1356 1355 1352 1348 1346 1343 1341 1338 1333 1329 1324 1325 1322 1319 1317 1316 1315 1315 1316 1317 1319 1320 1322 1324 1325 1326 1328 1329 1330 1331
1350 1352 1354 1353 1356 1357 1357 1359 1360 1358 1357 1358 1357 1355 1355 1354 1354 1350 1350 1356 1357 1357 1356 1355 1353 1351 1349 1346 1341 1335 1331 1329 1325 1318 1310 1315 1313 1311 1309 1309 1308 1307 1308 1311 1313 1315 1317 1320 1322 1324 1326 1328 1329 1330
1347 1348 1350 1351 1352 1353 1353 1354 1354 1354 1355 1355 1352 1353 1351 1348 1345 1350 1354 1354 1354 1353 1352 1350 1349 1346 1343 1339 1335 1330 1323 1318 1314 1307 1301 1302 1300 1300 1300 1299 1299 1301 1303 1305 1308 1311 1313 1316 1319 1322 1324 1326 1328 1329
1345 1346 1348 1349 1350 1350 1350 1351 1351 1351 1349 1349 1350 1348 1346 1343 1345 1351 1352 1352 1351 1349 1348 1346 1344 1341 1338 1333 1327 1321 1314 1308 1301 1296 1290 1285 1282 1283 1284 1287 1291 1294 1297 1300 1304 1307 1310 1313 1316 1319 1322 1325 1327 1329
1343 1344 1346 1348 1349 1348 1348 1347 1346 1346 1348 1348 1347 1347 1348 1349 1349 1349 1349 1349 1348 1347 1345 1342 1340 1336 1332 1328 1323 1317 1310 1302 1295 1289 1282 1276 1274 1272 1273 1278 1283 1288 1292 1296 1301 1305 1308 1311 1315 1318 1321 1324 1327 1329
1343 1344 1344 1346 1346 1344 1343 1344 1345 1346 1346 1347 1347 1347 1348 1348 1348 1348 1348 1347 1346 1344 1342 1339 1336 1333 1328 1323 1316 1310 1305 1299 1293 1287 1279 1272 1270 1271 1272 1274 1278 1283 1289 1294 1298 1303 1307 1310 1314 1317 1321 1323 1326 1328
1342 1343 1343 1343 1342 1342 1342 1342 1343 1343 1344 1344 1344 1346 1346 1347 1347 1346 1346 1345 1344 1342 1340 1337 1334 1331 1327 1321 1316 1308 1299 1294 1287 1279 1274 1267 1265 1266 1268 1271 1275 1282 1288 1293 1297 1301 1306 1310 1314 1317 1320 1323 1326 1329
1342 1342 1342 1342 1341 1341 1341 1341 1341 1341 1342 1342 1343 1344 1345 1346 1346 1346 1344 1343 1342 1340 1337 1335 1331 1328 1325 1321 1317 1311 1305 1298 1290 1280 1272 1269 1267 1268 1270 1276 1281 1286 1290 1295 1299 1303 1308 1311 1315 1318 1321 1324 1326 1329
1342 1343 1343 1342 1340 1339 1340 1340 1337 1338 1339 1340 1341 1342 1343 1343 1344 1345 1342 1341 1340 1338 1335 1333 1330 1327 1324 1320 1316 1311 1306 1300 1294 1287 1279 1275 1274 1276 1280 1283 1287 1290 1294 1298 1302 1306 1310 1313 1316 1319 1322 1325 1327 1329